SB KEPS @ AMSAT $ORB26123.1 2Line Orbital Elements 26123.AMSAT QST de KW1CDR AMSAT Orbital Elements for Amateur Satellites in TLE Format From Orbital Analysis Office New England Sci-Tech STEM Education Center West Townsend, MA May 03, 2026 To all radio amateurs These element sets describe the orbits of various satellites in use by the amateur radio community. For details see: www.amsat.org/keplerian-elements-formats/ A daily update of element sets is available at: www.amsat.org/tle/daily-bulletin.txt or without bulletin text: www.amsat.org/tle/dailytle.txt AO-07 1 07530U 74089B 26123.28550653 -.00000049 00000-0 -17506-4 0 9999 2 07530 101.9925 136.0610 0012023 215.3753 155.9111 12.53697364354893 UO-11 1 14781U 84021B 26123.18200606 .00001550 00000-0 16370-3 0 9994 2 14781 97.8028 89.2726 0007114 344.9066 15.1939 14.90676326250421 AO-27 1 22825U 93061C 26123.10852723 .00000105 00000-0 56956-4 0 9991 2 22825 98.6898 190.5333 0007542 227.1683 132.8867 14.30929795700551 FO-29 1 24278U 96046B 26123.20992253 -.00000004 00000-0 33205-4 0 9996 2 24278 98.5290 338.2299 0349281 213.0178 144.8714 13.53272233467088 GO-32 1 25397U 98043D 26122.96824398 .00000060 00000-0 46125-4 0 9990 2 25397 99.0063 114.5897 0001501 32.0604 328.0665 14.24419360444895 ISS 1 25544U 98067A 26123.29655904 .00006490 00000-0 12550-3 0 9999 2 25544 51.6307 162.3031 0007276 18.2147 341.9100 15.49074480564796 NO-44 1 26931U 01043C 26122.89921602 .00000136 00000-0 81785-4 0 9992 2 26931 67.0524 1.4071 0006416 263.8753 96.1618 14.31938302283964 SO-50 1 27607U 02058C 26123.10897520 .00001299 00000-0 17026-3 0 9993 2 27607 64.5518 268.4438 0075635 270.6812 88.5628 14.82948354257773 CO-55 1 27844U 03031E 26123.28875934 .00000314 00000-0 15489-3 0 9990 2 27844 98.6751 132.4107 0008737 322.1039 37.9524 14.24307597185282 RS-22 1 27939U 03042A 26123.33508281 .00000768 00000-0 12678-3 0 9991 2 27939 98.3462 306.4297 0012369 54.8574 65.9995 14.73386589208949 CO-65 1 32785U 08021C 26123.23063653 .00006571 00000-0 41910-3 0 9995 2 32785 97.8258 103.7369 0009093 171.3866 188.7519 15.09026676978418 CO-66 1 32791U 08021J 26122.93512464 .00020234 00000-0 67260-3 0 9995 2 32791 97.7522 118.7317 0005076 103.8255 256.3550 15.31210332980369 RS-30 1 32953U 08025A 26123.27217376 .00000057 00000-0 34016-3 0 9995 2 32953 82.5083 23.3770 0020554 50.6474 309.6423 12.43177833814115 SRMSAT 1 37841U 11058D 26123.28370443 .00000426 00000-0 87317-4 0 9995 2 37841 19.9734 331.2629 0011780 70.1655 102.9961 14.11565363751461 ZACUBE-1 1 39417U 13066B 26123.14310513 .00005759 00000-0 44911-3 0 9990 2 39417 97.8128 85.2373 0043316 44.3695 316.0986 15.00827385673971 Delfi-N3xt 1 39428U 13066N 26123.06106908 .00009855 00000-0 86685-3 0 9999 2 39428 97.8357 43.4313 0075216 358.5732 1.5262 14.94542770667883 GOMX-1 1 39430U 13066Q 26123.30903036 .00001371 00000-0 21294-3 0 9996 2 39430 97.6508 326.5999 0127840 221.1913 137.9593 14.69285698663325 LO-74 1 39440U 13066AA 26123.31078037 .00003257 00000-0 30560-3 0 9993 2 39440 97.8882 72.1210 0058000 174.7676 185.4162 14.93438502670298 AO-73 1 39444U 13066AE 26122.90455157 .00009490 00000-0 59688-3 0 9990 2 39444 97.8257 93.4342 0036643 1.4046 358.7278 15.08881845672830 DTUSAT-2 1 40030U 14033W 26123.25069768 .00008689 00000-0 47629-3 0 9997 2 40030 98.0869 118.1489 0008921 39.8191 320.3692 15.14428829645882 LILACSAT-2 1 40908U 15049K 26123.23002737 .00019124 00000-0 34249-3 0 9990 2 40908 97.4706 158.4004 0008487 66.6944 293.5200 15.49973718588781 Horyu-4 1 41340U 16012D 26123.11933376 .00168240 00000-0 10499-2 0 9995 2 41340 30.9899 43.9949 0006316 301.2578 58.7459 15.75261676563662 Lapan A3 1 41603U 16040E 26123.28133831 .00004209 00000-0 13496-3 0 9999 2 41603 97.1489 120.9148 0010668 166.2098 193.9438 15.32816500547938 CAS-2T 1 41847U 16066G 26123.21862651 .00000729 00000-0 11277-3 0 9997 2 41847 98.3829 199.4627 0340903 265.9974 90.2190 14.44577500498306 TechnoSat 1 42829U 17042E 26123.29833662 .00003688 00000-0 26556-3 0 9994 2 42829 97.4244 282.6867 0016018 244.3074 115.6500 15.04687924479954 AO-91 1 43017U 17073E 26123.21504418 .00009943 00000-0 43719-3 0 9994 2 43017 97.4764 351.3681 0154307 123.5043 238.1041 15.11900164458597 S-Net D 1 43186U 18014G 26123.19587971 .00005633 00000-0 29444-3 0 9990 2 43186 97.5399 28.2754 0008687 162.3063 197.8474 15.16251567451946 S-Net B 1 43187U 18014H 26123.20645593 .00005965 00000-0 31179-3 0 9994 2 43187 97.5403 28.2712 0009448 159.0714 201.0908 15.16221938451948 S-Net A 1 43188U 18014J 26123.19497748 .00005618 00000-0 29354-3 0 9997 2 43188 97.5414 28.4602 0009319 159.2435 200.9178 15.16258387451945 S-Net C 1 43189U 18014K 26123.21008487 .00006074 00000-0 31734-3 0 9991 2 43189 97.5429 28.5430 0010900 154.1591 206.0188 15.16213174450499 Ten-Koh 1 43677U 18084G 26122.98095565 .00002287 00000-0 17602-3 0 9996 2 43677 98.0786 313.4463 0007349 269.2301 90.8080 15.02749614409374 PO-101 1 43678U 18084H 26123.28559524 .00001528 00000-0 12726-3 0 9990 2 43678 98.1071 317.5780 0012693 325.6323 34.4077 15.00226964409487 QO-100 1 43700U 18090A 26120.49191795 .00000147 00000-0 00000-0 0 9990 2 43700 0.0137 266.9736 0001700 165.7205 348.6817 1.00277015 27199 MinXSS-2 1 43758U 18099A 26123.15393134 .00034577 00000-0 75704-3 0 9999 2 43758 97.4557 198.2219 0008464 76.9273 283.2919 15.44010573407177 AO-95 1 43770U 18099N 26123.29724805 .00013028 00000-0 51233-3 0 9990 2 43770 97.4413 183.7363 0010149 140.0396 220.1590 15.25742374406379 SNUSat 2 1 43782U 18099AA 26123.08515208 .00009464 00000-0 42707-3 0 9990 2 43782 97.4094 177.1777 0012058 95.1699 265.0913 15.21144613406173 SnugLite 1 43784U 18099AC 26123.11451767 .00012543 00000-0 48728-3 0 9996 2 43784 97.3904 177.8642 0004527 94.6257 265.5498 15.26195714406444 ITASat 1 1 43786U 18099AE 26123.15352168 .00008402 00000-0 40976-3 0 9993 2 43786 97.4061 175.5752 0013840 144.6050 215.6105 15.18475981406071 EAGLET 1 1 43790U 18099AJ 26123.07322735 .00004745 00000-0 27503-3 0 9993 2 43790 97.4267 173.9398 0012472 136.3710 223.8509 15.12593563405511 ESEO 1 43792U 18099AL 26123.07729525 .00001121 00000-0 84978-4 0 9998 2 43792 97.4003 162.3930 0013373 123.0946 237.1566 15.04101260405027 JO-97 1 43803U 18099AX 26123.11928954 .00018378 00000-0 59183-3 0 9994 2 43803 97.4156 185.8411 0007098 79.6109 280.5933 15.32233535406727 Suomi 100 1 43804U 18099AY 26123.14741819 .00011967 00000-0 44788-3 0 9993 2 43804 97.4218 183.7372 0011645 83.4216 276.8348 15.27392600406546 ISAT 1 43879U 18111D 26122.53262939 .00071517 00000-0 94069-3 0 9997 2 43879 97.5910 54.5176 0008712 103.4946 256.7280 15.58201264404043 UWE-4 1 43880U 18111E 26123.25771749 .00035525 00000-0 79237-3 0 9992 2 43880 97.5865 49.6800 0010512 118.7486 241.4819 15.43432741403848 Sparrow 1 43881U 18111F 26123.28504916 .00114559 00000-0 11955-2 0 9993 2 43881 97.6128 60.2758 0007352 120.6079 239.5906 15.64106308404331 Prox-1 1 44339U 19036A 26123.18932770 .00016051 00000-0 16118-2 0 9995 2 44339 23.9961 54.5698 0006424 230.7179 129.2750 14.89551566366750 Taurus 1 1 44530U 19059C 26123.23845144 .00005386 00000-0 87384-3 0 9990 2 44530 98.6378 285.3046 0009757 95.8796 264.3521 14.71604654352033 TO-108 1 44881U 19093C 26123.28062912 .00000912 00000-0 10921-3 0 9999 2 44881 97.7544 196.6059 0012366 231.5528 128.4578 14.86444862344747 RS-44 1 44909U 19096E 26123.20720489 .00000029 00000-0 78612-4 0 9996 2 44909 82.5255 9.5968 0216435 249.4823 108.2931 12.79748001296599 SALSAT 1 46495U 20068K 26123.26430952 .00009240 00000-0 32895-3 0 9994 2 46495 97.8857 123.6191 0011721 99.5903 260.6660 15.29136898308496 CSS (TIANHE-1) 1 48274U 21035A 26123.25394873 .00029264 00000-0 31285-3 0 9996 2 48274 41.4671 235.4983 0005642 321.3757 38.6678 15.63221784286147 CUTE 1 49263U 21088D 26123.19878296 .00079846 00000-0 52259-3 0 9997 2 49263 97.4208 218.8038 0000575 147.8504 212.2796 15.75567814255439 TeikyoSat 4 1 49396U 21102B 26123.04183145 .00002429 00000-0 15574-3 0 9999 2 49396 97.3701 154.2773 0013723 89.3207 270.9595 15.09344688245910 Z-Sat 1 49399U 21102E 26123.24431980 .00006321 00000-0 31352-3 0 9994 2 49399 97.3360 159.9333 0017942 48.3722 311.9045 15.17924765246626 KOSEN 1 1 49402U 21102H 26123.10798764 .00008095 00000-0 31466-3 0 9996 2 49402 97.3222 166.1528 0013888 14.8835 345.2810 15.26216763247142 HO-113 1 50466U 21131B 26123.27851866 .00000646 00000-0 21348-3 0 9993 2 50466 98.4960 215.9173 0003256 219.3162 140.7790 14.41314319228648 SNUGLITE 2 1 52899U 22065F 26123.20487525 .00001138 00000-0 22495-3 0 9993 2 52899 98.2139 268.1329 0008026 156.5688 203.5882 14.64261986204419 UmKA 1 (RS40S) 1 57172U 23091G 26123.27873130 .00006372 00000-0 29590-3 0 9998 2 57172 97.5080 182.1586 0011200 276.4146 83.5813 15.20312564157187 CubeBel-2 (EU11S) 1 57175U 23091K 26123.27722181 .00013229 00000-0 48444-3 0 9998 2 57175 97.5078 186.1242 0008426 272.0272 88.0002 15.28122649157448 RS-38S 1 57189U 23091Z 26123.24063995 .00018098 00000-0 54091-3 0 9995 2 57189 97.5113 191.8711 0006710 219.6540 140.4212 15.34620008157799 SONATE-2 1 59112U 24043Q 26123.15166499 .00043532 00000-0 63449-3 0 9992 2 59112 97.5487 270.9162 0006416 12.6421 347.4993 15.55567903120884 GRBBeta 1 60237U 24128C 26123.28309960 .00004519 00000-0 31344-3 0 9993 2 60237 61.9919 13.7681 0046307 125.2627 235.2812 15.06276286 99505 Curium One 1 60242U 24128H 26123.20399340 .00009699 00000-0 56331-3 0 9999 2 60242 61.9802 5.0089 0045904 121.8696 238.6879 15.11793661 99651 ROBUSTA-3A 1 60243U 24128J 26123.21030198 .00009520 00000-0 56519-3 0 9995 2 60243 61.9881 7.2125 0046986 119.3045 241.2757 15.10979067 99622 CatSat 1 60246U 24125J 26123.25507867 .00057938 00000-0 88212-3 0 9992 2 60246 97.2129 335.3303 0022607 352.3765 7.7142 15.54028341100407 HYPERVIEW-1G (RS66S) 1 61772U 24199AP 26123.27109245 .00105445 00000-0 10061-2 0 9991 2 61772 97.2963 1.0602 0008776 88.6465 271.5801 15.66384472127623 AO-123 1 61781U 24199AY 26123.25955878 .00009018 00000-0 26670-3 0 9993 2 61781 97.3058 352.3435 0015842 108.2771 252.0198 15.35017750127032 JINJUSat 1B 1 63210U 25052A 26122.96959684 .00017115 00000-0 55388-3 0 9992 2 63210 97.4057 19.7033 0001676 211.6139 148.5002 15.32113273 63177 NUSHSAT 1 1 63211U 25052B 26123.21107232 .00023080 00000-0 69715-3 0 9993 2 63211 97.4031 20.3679 0001419 208.4495 151.6671 15.34252169 63243 TEVEL2-4 1 63213U 25052D 26123.23164696 .00020604 00000-0 64653-3 0 9999 2 63213 97.3952 19.5934 0000348 223.0075 137.1140 15.33063145 63228 TEVEL2-5 1 63214U 25052E 26123.24743654 .00021333 00000-0 67240-3 0 9993 2 63214 97.3949 19.5690 0000373 233.7338 126.3870 15.32912914 63228 TEVEL2-6 1 63215U 25052F 26123.19339710 .00020859 00000-0 65842-3 0 9990 2 63215 97.3954 19.5001 0000502 247.2106 112.9084 15.32872495 63214 TEVEL2-1 1 63217U 25052H 26123.14236054 .00019580 00000-0 62769-3 0 9998 2 63217 97.3929 19.1246 0000696 325.9296 34.1901 15.32388721 63197 TEVEL2-3 1 63218U 25052J 26123.20377904 .00019677 00000-0 62983-3 0 9991 2 63218 97.3932 19.2023 0000691 322.5802 37.5392 15.32437808 63201 TEVEL2-2 1 63219U 25052K 26123.20817663 .00020007 00000-0 64111-3 0 9997 2 63219 97.3926 19.1918 0000742 324.3252 35.7940 15.32397556 63207 TEVEL2-9 1 63237U 25052AD 26123.19480131 .00018554 00000-0 62987-3 0 9994 2 63237 97.3989 18.6465 0004507 315.1831 44.9045 15.30542518 63140 TEVEL2-7 1 63238U 25052AE 26123.22760964 .00017679 00000-0 60516-3 0 9997 2 63238 97.3994 18.6131 0004554 315.7853 44.3023 15.30283255 63149 TEVEL2-8 1 63239U 25052AF 26122.64683984 .00016873 00000-0 57850-3 0 9991 2 63239 97.3994 18.0131 0004640 319.1454 40.9439 15.30241940 63053 HYDRA-W HYDRA-W 1 63490U 25052BL 26112.26439385 .02130398 41366-2 26477-2 0 9994 2 63490 97.3739 16.4004 0007524 180.8298 179.2974 16.08789288 62061 HADES-ICM (SO-125) 1 63492U 25052BN 26122.70450804 .00486536 00000-0 22111-2 0 9990 2 63492 97.3811 25.9601 0005420 156.8037 203.3477 15.82611773 63601 SPIRONE 1 66657U 25274H 26122.22548051 .00003096 00000-0 30016-3 0 9991 2 66657 97.7479 52.1840 0012609 159.5664 200.6062 14.93357708 23366 K-HERO 1 66660U 25274L 26123.24785544 .00001710 00000-0 16633-3 0 9998 2 66660 97.7483 53.3189 0014332 162.2622 197.9101 14.93791558 23529 SNUGLITE-III DURI 1 66661U 25274M 26123.03617295 .00001784 00000-0 17309-3 0 9995 2 66661 97.7480 53.1289 0014909 163.9366 196.2330 14.93849089 23494 SilverSat SilverSat 1 66909U 98067XV 26113.44966717 .07226154 12288-4 11979-2 0 9998 2 66909 51.6027 190.0749 0007952 333.4666 26.5949 16.32457272 22308 SAKHACUBE-CHOLBON 1 67290U 25313AU 26123.19730622 .00011056 00000-0 45759-3 0 9998 2 67290 97.3945 198.8210 0010512 147.7643 212.4239 15.24062180 19128 RS95S (QMR-KWT-2) 1 67291U 25313AV 26123.15580226 .00017024 00000-0 68092-3 0 9994 2 67291 97.3944 198.8743 0010259 147.5439 212.6432 15.25110979 19126 Ten-Koh2 1 68261U 25241B 26123.15100596 .00006870 00000-0 29903-3 0 9995 2 68261 51.6491 173.8944 0005916 0.3708 359.7273 15.23322408 8044 JACK-002 1 68417U 26067B 26123.30361150 .00008356 00000-0 40430-3 0 9996 2 68417 97.4544 82.4790 0004074 83.6343 276.5355 15.18833005 5139 DISCO 2 1 68431U 26067R 26123.11595609 .00010458 00000-0 51112-3 0 9994 2 68431 97.4580 82.2872 0003781 124.1607 235.9986 15.18416754 5106 HADES-SA (SpinnyONE) 1 68446U 26067AG 26122.81202101 .00019223 00000-0 95863-3 0 9998 2 68446 97.4392 81.8517 0005417 214.6385 145.4497 15.17561269 5046 PARUS-6U1 1 68456U 26067AS 26122.81482571 .00006270 00000-0 32020-3 0 9994 2 68456 97.4531 81.9034 0004621 202.8938 157.2090 15.17043307 5055 SAL-E 1 68458U 26067AU 26123.14455647 .00008777 00000-0 44570-3 0 9994 2 68458 97.4456 82.1972 0004536 210.8816 149.2152 15.17121335 5100 IO-86 IO-86 1 40931U 25360.30710720 .00000000 00000-0 12800-3 0 00 2 40931 6.0006 332.5373 0012733 338.8432 8.1437 14.79075515 01 LILIUM-4 LILIUM-4 1 71922C 26067AC 26089.50133053 -.00014632 00000+0 -74472-3 0 04 2 71922 97.4497 49.1617 0004341 5.9603 355.7042 15.16896692 16